Notices

Due to recent upgrades, we are currently experiencing delays in populating our data report tables. We thank you for your patience during this time of difficulty as we are working in rectifying this issue as soon as possible. If you have any questions or concerns, please contact us.

Hourly Data Report for May 25, 2003

SHERBROOKE A
QUEBEC

45°26'00.000" N
71°41'00.000" W
241.40 m
7028124
71610
YSC

Download Data

Hourly Data (May 2003)
Hourly Data Report for May 25, 2003
TIME
LST
Temp Definition
°C
Dew Point Definition
°C
Rel Hum Definition
%
Precip. Amount Definition
mm

Wind Dir Definition
10's deg

Wind Spd Definition
km/h
Visibility Definition
km
Stn Press Definition
kPa
Hmdx Definition


Wind Chill Definition


Weather Definition


00:00 9.3 8.5 95   5 7 15.0 98.95     Rain
01:00 9.1 8.3 95   5 7 15.0 98.92     Drizzle
02:00 8.9 8.3 96   7 6 15.0 98.90     Rain
03:00 8.7 8.2 97   6 6 12.9 98.88     Rain
04:00 8.5 8.2 98   6 6 15.0 98.89     Rain
05:00 8.5 8.2 98   5 6 9.7 98.89     Rain
06:00 8.8 8.4 97   5 6 15.0 98.93     Rain
07:00 9.3 8.8 97   6 7 12.9 98.97     Rain
08:00 9.9 9.4 97   7 6 11.3 98.99     Rain
09:00 10.7 10.3 97   3 7 16.1 98.96     Rain
10:00 11.9 11.3 96   2 7 16.1 98.93     Rain Showers
11:00 14.2 13.1 93   1 9 24.1 98.86     Rain Showers
12:00 14.9 11.3 79   12 4 24.1 98.83     Cloudy
13:00 16.4 12.5 78   5 7 24.1 98.79     Cloudy
14:00 16.3 13.6 84   10 9 24.1 98.79     Rain Showers
15:00 16.7 12.7 77   8 7 24.1 98.78     Cloudy
16:00 15.5 12.6 83   3 9 19.3 98.80     Rain Showers
17:00 14.8 13.4 91   6 6 12.9 98.80     Rain
18:00 14.8 12.9 88   4 9 15.0 98.77      
19:00 13.7 11.9 89   4 7 15.0 98.81      
20:00 13.3 11.3 88   5 9 15.0 98.88      
21:00 12.2 10.7 91   6 7 15.0 98.91      
22:00 12.2 10.3 88   5 4 15.0 98.90      
23:00 10.1 9.3 95   10 4 15.0 98.90      

Notes on Data Quality.

Legend

  • E = Estimated
  • M = Missing
  • NA = Not Available*
  • [empty] = Indicates an unobserved value
Date modified: